RH
51 50 50 51 51 52 50 51 52 52 51 48 44 41 39 36 33 31 31 31 31 32 32 31 32 31 30 30 31 31 30 30 30 29 28 28 28 26 24 23 24 24 24 24 25 26 26 26 27 28 30 32 32 32 33 34 34 35 36 36 36 37 38
48 47 47 48 50 51 50 48 50 51 50 48 46 44 42 38 35 32 31 31 30 31 31 31 31 31 30 29 30 31 31 30 30 29 28 27 27 26 25 24 24 24 25 24 25 26 26 26 27 28 29 30 30 30 30 32 33 34 35 35 36 37 38
44 45 45 46 48 50 50 48 48 49 50 48 45 44 43 41 37 34 33 32 32 32 31 31 31 31 30 29 29 30 30 30 30 30 29 27 26 26 25 25 25 25 25 25 25 25 26 26 26 27 27 27 27 27 27 28 30 31 32 32 33 34 36
40 41 43 45 46 48 48 48 47 48 50 49 45 43 43 42 40 38 35 34 34 33 31 30 30 30 30 29 28 29 29 29 30 30 29 28 27 26 25 25 25 26 26 25 25 25 26 26 26 26 25 25 25 25 25 25 26 28 30 31 31 32 32
38 38 40 43 46 46 46 47 47 48 49 49 46 45 44 44 44 42 39 37 36 35 32 31 30 30 30 29 28 28 28 28 29 29 29 28 27 26 25 25 25 25 25 25 25 25 25 26 26 25 24 24 24 23 22 22 23 25 27 29 30 30 31
35 36 38 40 43 45 44 45 47 47 47 49 48 46 45 45 44 43 42 40 38 37 36 34 31 29 29 29 29 28 27 27 27 28 28 28 27 26 24 23 23 23 24 24 24 24 25 25 25 25 25 25 24 21 19 20 21 22 25 28 29 30 30
33 34 35 37 40 42 43 45 47 47 47 48 49 47 47 47 45 44 44 42 40 39 38 35 32 29 28 28 28 27 26 26 26 27 28 28 27 26 24 23 22 22 23 23 23 23 24 24 24 26 26 25 23 20 18 18 19 20 22 26 29 30 30
32 32 32 34 37 40 42 43 46 47 47 48 49 48 46 46 46 45 43 41 40 38 37 34 32 29 27 27 27 26 25 26 26 26 26 27 27 26 24 23 22 22 22 22 23 23 24 24 25 26 25 24 21 18 17 17 17 18 20 24 28 30 31
31 30 30 33 36 38 40 42 44 47 47 46 48 48 45 45 45 43 42 41 40 38 35 34 32 29 27 27 26 25 25 25 25 25 25 25 25 25 24 23 22 22 22 21 22 23 24 25 25 25 24 21 19 16 15 15 16 17 18 22 27 31 31
30 29 30 33 36 38 41 42 43 46 46 44 47 48 46 45 44 42 42 41 40 37 36 35 33 30 27 26 26 26 25 25 25 25 25 24 24 24 24 23 23 22 22 22 22 22 22 23 24 23 22 20 17 15 14 14 15 17 19 22 27 29 29
29 29 31 34 38 39 41 42 41 42 43 43 46 48 47 45 43 42 41 40 39 38 37 36 33 30 27 26 27 27 26 25 25 25 24 24 23 23 23 23 23 22 21 22 22 21 21 21 22 21 19 18 16 15 14 14 16 19 21 23 26 28 28
26 28 32 35 37 39 41 42 39 39 41 42 43 46 47 45 43 42 40 40 40 39 38 36 32 29 27 27 27 27 26 25 24 24 24 23 23 22 22 23 23 21 21 20 20 19 19 19 19 18 17 16 15 14 14 15 17 20 22 23 25 26 26
23 25 29 33 36 37 39 40 38 36 38 40 41 42 44 44 43 42 41 40 40 40 38 36 32 29 27 27 27 27 26 25 24 23 23 23 22 22 22 22 22 21 20 20 20 19 18 17 16 15 15 14 14 13 13 15 18 21 22 22 23 24 24
23 24 26 30 33 34 36 37 35 35 38 40 41 41 42 43 42 41 41 40 40 41 39 36 33 29 26 26 26 25 24 24 24 23 23 23 22 22 22 22 22 22 21 20 20 19 18 16 15 14 14 14 13 12 13 16 19 21 22 22 22 22 22
23 23 23 26 28 30 32 32 31 33 37 41 42 42 43 43 42 41 41 41 41 40 39 36 33 28 26 26 26 25 24 24 24 24 23 23 23 22 22 22 22 22 21 20 19 19 18 16 15 14 14 13 12 12 15 18 20 21 21 21 21 21 21
23 21 20 22 24 25 26 28 29 31 37 42 43 43 43 42 42 41 40 40 40 40 38 36 32 28 26 25 25 25 24 24 24 24 24 24 23 23 23 22 22 22 21 20 19 19 18 17 16 14 13 12 12 13 16 19 20 20 20 21 21 21 20
26 21 19 19 19 20 21 24 27 30 37 43 44 43 42 41 41 41 40 40 40 39 37 35 32 29 27 26 25 25 26 25 25 25 24 24 23 23 23 23 22 22 21 20 20 20 19 17 16 14 13 13 13 15 18 19 20 20 20 21 21 21 20
31 26 21 18 17 16 17 22 26 29 37 44 45 43 42 40 40 41 42 41 40 39 38 35 32 29 28 28 27 26 26 27 27 26 25 24 23 23 23 23 23 22 21 20 20 20 20 19 18 15 14 15 16 18 20 20 19 19 20 21 21 21 20
33 30 24 18 15 14 15 19 22 26 35 42 44 44 44 42 40 40 41 41 40 39 38 35 32 30 31 31 29 27 27 27 28 28 26 25 23 23 23 22 22 21 21 20 20 21 21 21 20 18 17 18 19 21 22 21 20 19 20 20 21 21 21
33 31 25 18 15 15 15 16 19 24 33 40 43 45 45 43 39 40 43 44 42 40 38 36 34 33 34 34 31 29 28 28 29 28 28 26 24 23 22 21 20 20 20 20 20 21 21 22 21 21 20 22 22 23 24 23 22 21 21 21 21 21 21
34 33 28 21 18 18 15 15 18 24 32 38 43 45 43 40 39 42 45 45 43 41 40 38 36 34 34 35 33 30 28 28 29 29 28 27 25 22 20 20 19 20 20 20 20 21 21 21 22 23 24 25 25 26 26 25 24 24 24 23 22 22 22
37 37 34 27 23 19 15 14 17 23 30 38 43 44 40 38 39 42 45 45 43 42 41 39 37 35 35 35 34 30 28 27 28 28 27 26 24 21 19 19 19 19 19 20 20 21 21 21 22 24 27 28 29 29 28 26 26 26 26 26 25 25 24
41 40 35 28 24 20 16 16 20 26 33 39 42 42 40 40 41 43 46 46 44 43 43 41 37 34 33 34 34 31 28 27 26 26 25 24 22 19 18 18 18 18 19 20 20 21 21 21 23 26 29 30 31 32 30 28 27 27 27 28 28 28 28
43 41 34 26 23 20 16 18 23 28 33 37 40 41 42 43 44 45 46 46 44 43 43 41 36 32 32 33 33 32 30 28 27 26 25 24 22 21 19 19 19 18 19 19 20 21 21 22 25 29 31 32 33 33 32 31 30 28 28 30 31 31 31
44 43 35 26 22 21 19 19 23 27 31 36 39 41 42 44 45 46 46 45 44 42 41 38 34 31 31 32 33 33 33 32 30 28 26 26 25 25 24 24 23 23 23 23 23 23 24 25 28 31 33 34 35 35 34 34 34 31 31 32 33 34 33
46 44 37 29 23 22 21 21 23 26 31 36 39 41 43 44 45 46 46 46 44 41 38 35 32 30 30 31 33 34 34 34 33 32 30 29 29 28 29 29 29 30 30 31 31 32 32 33 34 35 36 36 37 37 37 37 37 35 34 34 35 35 36
48 47 42 34 26 23 24 26 26 28 32 35 38 42 45 47 47 47 47 46 44 40 36 32 31 29 29 30 31 32 33 34 34 34 34 34 34 34 35 36 38 39 40 40 41 42 42 43 43 42 41 40 39 38 38 38 37 36 35 35 36 37 39
52 49 46 41 32 26 28 32 32 32 34 36 39 43 46 48 48 48 47 45 43 40 37 34 32 30 29 29 29 30 31 32 33 33 34 35 37 39 41 43 45 46 46 46 46 46 47 48 48 47 46 45 43 40 38 36 36 35 35 35 36 38 40
55 52 48 45 39 33 31 34 35 35 36 39 41 44 46 48 49 48 46 44 43 42 40 35 32 31 30 29 29 29 29 29 30 31 33 35 39 43 45 46 46 46 45 45 45 45 45 45 45 46 46 45 44 44 42 40 39 38 38 38 39 40 42
58 55 51 48 45 41 38 37 37 37 39 42 45 47 47 48 48 48 46 45 45 44 42 38 37 35 35 34 33 32 31 31 31 33 35 37 40 43 45 45 45 45 45 43 43 43 43 43 44 45 45 45 46 47 47 48 47 46 46 46 45 45 45
60 58 55 51 48 46 44 43 42 42 44 47 48 48 47 48 49 48 46 45 46 46 44 43 42 41 40 39 39 38 38 37 37 38 39 40 41 43 45 46 47 48 48 47 46 45 45 45 46 46 47 47 48 49 51 52 54 56 57 57 55 53 50
63 61 58 54 51 49 48 49 49 49 49 50 50 49 48 48 48 46 46 47 49 49 48 47 46 45 44 43 43 43 43 43 42 42 43 44 45 47 48 48 49 50 50 50 50 50 50 50 50 50 51 50 50 51 52 53 56 59 61 61 61 59 56
66 65 62 59 56 54 52 53 55 56 56 55 53 51 49 48 47 46 49 51 52 51 51 50 49 48 47 45 44 44 45 44 44 44 45 46 47 48 48 49 49 50 50 50 50 51 52 53 52 53 53 52 51 52 52 53 55 58 59 59 59 59 58
68 69 67 63 61 59 56 56 59 61 62 61 59 56 54 53 51 51 53 54 54 53 54 54 53 51 48 45 45 44 44 44 45 45 46 45 45 46 46 47 48 48 48 48 49 50 51 51 52 52 53 53 53 53 52 52 53 55 57 57 57 58 57
65 70 70 67 63 61 61 61 61 63 65 65 63 61 60 59 59 58 58 59 59 59 58 58 58 56 51 47 45 43 43 44 45 45 45 44 43 44 44 45 45 46 47 47 47 47 49 49 48 49 51 52 53 53 53 53 53 55 56 57 58 59 58
62 67 70 69 65 62 63 64 64 65 66 66 64 63 61 61 61 61 61 62 63 63 62 62 61 59 54 50 46 43 43 44 44 44 44 43 41 41 42 43 43 44 45 45 45 45 47 47 47 47 47 48 50 51 53 55 55 56 57 58 59 60 60
59 62 67 69 68 65 65 67 68 68 68 68 67 64 61 60 60 60 60 60 61 61 61 62 60 57 53 50 48 45 45 44 43 44 44 44 42 42 41 42 42 42 42 42 43 44 45 45 45 46 46 47 47 48 50 52 54 56 57 57 58 58 59
55 58 63 66 67 65 65 68 71 72 72 71 69 65 62 61 59 58 57 57 59 59 59 58 56 52 49 48 47 46 44 43 42 42 43 44 45 44 42 42 42 42 42 42 42 43 44 44 45 46 47 48 49 48 48 49 50 52 54 54 55 55 55